+ View the NASA Portal
+ Center for Near-Earth Object Studies
IMPORTANT:
The SSD Announcement email list is now available. Major changes are coming in the near future, including possible hostname and/or URL changes. To be notified of such changes, subscribe to this email list.
Please visit
this page
for more details.
Don't show this message again
JPL Small-Body Database Browser
Search:
[
help
]
357503 (2004 PA95)
Classification:
Main-belt Asteroid
SPK-ID:
2357503
[
Ephemeris
|
Orbit Diagram
|
Orbital Elements
|
Mission Design
|
Physical Parameters
|
Discovery Circumstances
|
Close-Approach Data
]
[ show orbit diagram ]
Orbital Elements at Epoch 2458600.5 (2019-Apr-27.0) TDB
Reference:
JPL 13
(heliocentric ecliptic J2000)
Element
Value
Uncertainty (1-sigma)
Units
e
.1045842861050568
6.5218e-08
a
3.111557912632311
4.6159e-08
au
q
2.78613784966512
2.1253e-07
au
i
8.553643082996738
6.8463e-06
deg
node
304.6370640867937
4.4547e-05
deg
peri
9.470721434380161
5.4996e-05
deg
M
255.2530008984428
3.2513e-05
deg
t
p
2459183.816617275816
(2020-Nov-30.31661728)
0.00018572
TDB
period
2004.773253844672
5.49
4.4611e-05
1.221e-07
d
yr
n
.1795714299907018
3.9959e-09
deg/d
Q
3.436977975599502
5.0987e-08
au
Orbit Determination Parameters
# obs. used (total)
197
data-arc span
5384 days (14.74 yr)
first obs. used
2004-08-11
last obs. used
2019-05-09
planetary ephem.
DE431
SB-pert. ephem.
SB431-N16
condition code
0
norm. resid. RMS
.59088
source
ORB
producer
Otto Matic
solution date
2019-May-30 09:29:41
Additional Information
Earth MOID
= 1.77164 au
Jupiter MOID
= 1.82592 au
T_jup
= 3.193
[ show covariance matrix ]
[
Ephemeris
|
Orbit Diagram
|
Orbital Elements
|
Mission Design
|
Physical Parameters
|
Discovery Circumstances
|
Close-Approach Data
]
Physical Parameter Table
Parameter
Symbol
Value
Units
Sigma
Reference
Notes
absolute magnitude
H
15.9
n/a
MPO434257
357503 (2004 PA95)
Discovered 2004-Aug-11 by LINEAR at Socorro
Reference:
20130327/Numbers.arc
Last Updated:
2013-03-29
[ show close-approach data ]
[
Ephemeris
|
Orbit Diagram
|
Orbital Elements
|
Mission Design
|
Physical Parameters
|
Discovery Circumstances
|
Close-Approach Data
]
2019-Dec-15 19:04 UT
(server date/time)
Site Manager:
Ryan S. Park
Webmaster
:
Alan B. Chamberlin